Home > Time Zones > World Clock > Weather > Italy > Turin > Past weeks

Flag for Italy Weather past 2 weeks in Turin, Italy

Now
57 °F

Overcast.


Feels Like: 57 °F
Forecast: 62 / 75 °F
Wind: No wind

Location: Torino / Bric Della Croce

Current Time: Sep 20, 2014 at 12:20:48 AM

Latest Report: Sep 19, 2014 at 11:55 PM


Visibility: 4 mi

Pressure: 30.12 "Hg

Humidity: 100%

Dew point: 57 °F

Location of TurinLocation

Historic Weather in Turin — Graph

°F

Turin temperature yesterday

Maximum temperature yesterday: 57 °F (at 11:55 AM)
Minimum temperature yesterday: 55 °F (at 12:55 AM)
Average temperature yesterday: 56 °F

Past Weeks' High & Low Weather Summary

 TemperatureHumidityPressure
High77 °F (Sep 8, 4:55 PM)100% (Sep 5, 3:55 AM)30.12 "Hg (Sep 5, 3:55 AM)
Low54 °F (Sep 12, 7:55 AM)38% (Sep 13, 4:55 PM)29.83 "Hg (Sep 11, 3:55 PM)
Average64 °F87%30.00 "Hg
* Reported Sep 4 10:55 PM — Sep 19 10:55 PM, Turin, Weather by CustomWeather, © 2014

Note: Actual official high and low records may vary slightly from our data, if they occured in-between our weather recording intervals... More about our weather records

Advertising

Turin weather history for previous 24 hours

 ConditionsComfort  
Time TempWeatherWind HumidityBarometerVisibility
10:55 PM
Sep 19
57 °FFog.3 mph100%30.12 "Hg2 mi
9:55 PM57 °FFog.5 mph100%30.12 "Hg1 mi
8:55 PM57 °FFog.No wind100%30.12 "Hg2 mi
7:55 PM57 °FFog.5 mph100%30.12 "Hg1 mi
6:55 PM57 °FFog.No wind100%30.09 "Hg1 mi
5:55 PM57 °FFog.No wind100%30.09 "Hg2 mi
4:55 PM57 °FFog.5 mph100%30.12 "Hg0 mi
3:55 PM57 °FFog.6 mph100%30.12 "Hg0 mi
2:55 PM57 °FFog.No wind100%30.12 "Hg0 mi
1:55 PM55 °FDrizzle. Fog.5 mph100%30.12 "Hg0 mi
12:55 PM57 °FDrizzle. Fog.3 mph100%30.12 "Hg0 mi
11:55 AM57 °FDrizzle. Fog.3 mph100%30.12 "Hg0 mi
10:55 AM55 °FDrizzle. Fog.3 mph100%30.12 "Hg0 mi
9:55 AM55 °FDrizzle. Fog.3 mph100%30.12 "Hg0 mi
8:55 AM55 °FDrizzle. Fog.No wind100%30.12 "Hg0 mi
7:55 AM55 °FFog.No wind100%30.12 "Hg0 mi
6:55 AM55 °FFog.No wind100%30.12 "Hg0 mi
5:55 AM55 °FFog.No wind100%30.12 "Hg0 mi
4:55 AM55 °FFog.No wind100%30.12 "Hg0 mi
3:55 AM55 °FFog.No wind100%30.12 "Hg0 mi
2:55 AM55 °FFog.No wind100%30.12 "Hg0 mi
1:55 AM55 °FFog.No wind100%30.12 "Hg0 mi
12:55 AM55 °FFog.No wind100%30.12 "Hg0 mi
Weather by CustomWeather, © 2014

See weather overviewHow to use our weather pages